Location: Guadanolo
(41.9167°N, 12.9333°E)
Time: 04:04:53
(UTC+00:00)

Meteor 2-9 Rocket - Pass Details

Date: 16 September 2019
Orbit: 791 x 896 km, 81.3° (Epoch: 17 October)

Event Time Altitude Azimuth Distance (km) Brightness Sun altitude
Rises 17:48:54 0° 176° (S) 3,486 7.3 -6.8°
Reaches altitude 10° 17:51:24 10° 172° (S) 2,543 6.5 -7.2°
Maximum altitude 17:57:04 58° 95° (E) 1,017 4.3 -8.3°
Drops below altitude 10° 18:02:38 10° 18° (NNE) 2,504 6.6 -9.3°
Sets 18:05:04 0° 14° (NNE) 3,428 7.4 -9.7°
